Time,TemperatureF,DewpointF,PressureIn,WindDirection,WindDirectionDegrees,WindSpeedMPH,WindSpeedGustMPH,Humidity,HourlyPrecipIn,Conditions,Clouds,dailyrainin,SoftwareType,DateUTC
2018-01-17 00:08:00,5.8,4.0,30.41,East,90,1.2,3.0,86,0.00,,,0.00,Rainwise IP-100,2018-01-17 05:08:00,
2018-01-17 00:17:00,5.8,4.0,30.41,East,90,0.0,2.0,86,0.00,,,0.00,Rainwise IP-100,2018-01-17 05:17:00,
2018-01-17 00:22:00,5.8,4.0,30.41,East,90,0.0,0.0,86,0.00,,,0.00,Rainwise IP-100,2018-01-17 05:22:00,
2018-01-17 00:35:00,5.8,4.0,30.41,East,90,0.0,2.0,86,0.00,,,0.00,Rainwise IP-100,2018-01-17 05:35:00,
2018-01-17 00:41:00,5.8,4.0,30.40,East,90,2.6,3.0,86,0.00,,,0.00,Rainwise IP-100,2018-01-17 05:41:00,
2018-01-17 00:58:00,5.6,4.0,30.40,East,90,1.2,1.2,87,0.00,,,0.00,Rainwise IP-100,2018-01-17 05:58:00,
2018-01-17 01:09:00,5.4,4.0,30.40,East,90,0.0,0.0,86,0.00,,,0.00,Rainwise IP-100,2018-01-17 06:09:00,
2018-01-17 01:19:00,5.4,4.0,30.40,East,90,0.0,4.0,87,0.00,,,0.00,Rainwise IP-100,2018-01-17 06:19:00,
2018-01-17 01:24:00,5.4,4.0,30.40,East,90,0.0,1.0,87,0.00,,,0.00,Rainwise IP-100,2018-01-17 06:24:00,
2018-01-17 01:35:00,5.2,4.0,30.40,East,90,0.0,2.0,87,0.00,,,0.00,Rainwise IP-100,2018-01-17 06:35:00,
2018-01-17 01:40:00,5.2,4.0,30.39,East,90,1.6,1.6,87,0.00,,,0.00,Rainwise IP-100,2018-01-17 06:40:00,
2018-01-17 01:45:00,5.2,4.0,30.40,East,90,0.0,1.0,87,0.00,,,0.00,Rainwise IP-100,2018-01-17 06:45:00,
2018-01-17 01:52:00,5.1,4.0,30.40,East,90,1.4,2.0,87,0.00,,,0.00,Rainwise IP-100,2018-01-17 06:52:00,
2018-01-17 02:03:00,5.1,4.0,30.40,East,90,1.9,2.0,87,0.00,,,0.00,Rainwise IP-100,2018-01-17 07:03:00,
2018-01-17 02:10:00,5.0,4.0,30.40,East,90,2.1,3.0,87,0.00,,,0.00,Rainwise IP-100,2018-01-17 07:10:00,
2018-01-17 02:15:00,5.0,4.0,30.40,East,90,0.0,3.0,87,0.00,,,0.00,Rainwise IP-100,2018-01-17 07:15:00,
2018-01-17 02:28:00,4.9,4.0,30.40,East,90,0.0,0.0,87,0.00,,,0.00,Rainwise IP-100,2018-01-17 07:28:00,
2018-01-17 02:40:00,4.9,4.0,30.40,East,90,0.0,0.0,87,0.00,,,0.00,Rainwise IP-100,2018-01-17 07:40:00,
2018-01-17 02:45:00,4.8,4.0,30.39,East,90,0.0,0.0,87,0.00,,,0.00,Rainwise IP-100,2018-01-17 07:45:00,
2018-01-17 02:53:00,4.9,4.0,30.40,East,90,0.0,0.0,87,0.00,,,0.00,Rainwise IP-100,2018-01-17 07:53:00,
2018-01-17 02:59:00,4.9,4.0,30.40,East,90,0.0,0.0,87,0.00,,,0.00,Rainwise IP-100,2018-01-17 07:59:00,
2018-01-17 03:06:00,4.9,4.0,30.40,East,90,0.0,0.0,87,0.00,,,0.00,Rainwise IP-100,2018-01-17 08:06:00,
2018-01-17 03:11:00,4.8,4.0,30.40,East,90,0.0,2.0,87,0.00,,,0.00,Rainwise IP-100,2018-01-17 08:11:00,
2018-01-17 03:17:00,4.8,4.0,30.40,East,90,1.4,3.0,87,0.00,,,0.00,Rainwise IP-100,2018-01-17 08:17:00,
2018-01-17 03:25:00,4.8,4.0,30.40,East,90,0.0,1.0,87,0.00,,,0.00,Rainwise IP-100,2018-01-17 08:25:00,
2018-01-17 03:30:00,4.8,4.0,30.40,East,90,0.0,0.0,87,0.00,,,0.00,Rainwise IP-100,2018-01-17 08:30:00,
2018-01-17 03:38:00,4.8,4.0,30.40,East,90,0.0,0.0,87,0.00,,,0.00,Rainwise IP-100,2018-01-17 08:38:00,
2018-01-17 03:46:00,4.8,4.0,30.40,East,90,0.0,0.0,87,0.00,,,0.00,Rainwise IP-100,2018-01-17 08:46:00,
2018-01-17 03:55:00,4.8,4.0,30.40,East,90,0.0,0.0,87,0.00,,,0.00,Rainwise IP-100,2018-01-17 08:55:00,
2018-01-17 04:01:00,4.8,4.0,30.39,East,90,0.0,0.0,87,0.00,,,0.00,Rainwise IP-100,2018-01-17 09:01:00,
2018-01-17 04:06:00,4.7,4.0,30.40,East,90,0.0,0.0,87,0.00,,,0.00,Rainwise IP-100,2018-01-17 09:06:00,
2018-01-17 04:13:00,4.6,4.0,30.40,East,90,0.0,0.0,87,0.00,,,0.00,Rainwise IP-100,2018-01-17 09:13:00,
2018-01-17 04:18:00,4.6,4.0,30.40,East,90,0.0,0.0,86,0.00,,,0.00,Rainwise IP-100,2018-01-17 09:18:00,
2018-01-17 04:24:00,4.6,4.0,30.40,East,90,0.0,0.0,86,0.00,,,0.00,Rainwise IP-100,2018-01-17 09:24:00,